Zurück zum Katalog

FENGYUN 1C DEB

LostSSO
NORAD 38515·DEBRIS·🇨🇳 China

Gestartet May 10, 1999 von Taiyuan Satellite Launch Center

Loading…

Nächste Überflüge (nächste 24 Stunden)

TLE

VeraltetSource: Space-Track

Epoche: Feb 6, 2016, 07:10 UTC

1 38515U 99025ETA 16037.29875325 +.00000582 +00000-0 +36115-3 0  9999
2 38515 099.0314 067.0767 0040408 310.8249 048.6865 14.08778441329113

Verfolge FENGYUN 1C DEB in Echtzeit mit AllMySat

Download on the App Store